Clayton Lake, ME

5:28 AM EDT on September 24, 2017 (GMT -0400)
Clayton Lake

Weather History for K40B - November, 2012

Change the Weather History Date:

Saturday, November 3, 2012

  Actual Average Record
Temperature  
Mean Temperature 40 °F -  
Max Temperature 44 °F 39 °F 62 °F (1999)
Min Temperature 38 °F 24 °F 8 °F (2002)
Degree Days  
Heating Degree Days 24    
Moisture  
Dew Point 37 °F    
Average Humidity 86    
Maximum Humidity 97    
Minimum Humidity 80    
Precipitation  
Precipitation 0.00 in - - ()
Sea Level Pressure  
Sea Level Pressure 29.61 in    
Wind  
Wind Speed 3 mph (North)    
Max Wind Speed 7 mph    
Max Gust Speed 14 mph    
Averages and records for this station are not official NWS values.
T = Trace of Precipitation, MM = Missing Value Source: NWS Daily Summary

Daily Weather History Graph

Daily Weather History Graph

Search for Another Location

Airport or City:

Trip Planner

Search our weather history database for the weather conditions in past years. The results will help you decide how hot, cold, wet, or windy it might be!

Date:

Astronomy

Nov. 03, 2012 Rise Set
Actual Time 7:23 AM EDT 5:19 PM EDT
Civil Twilight 6:51 AM EDT 5:50 PM EDT
Nautical Twilight 6:15 AM EDT 6:26 PM EDT
Astronomical Twilight 5:40 AM EDT 7:01 PM EDT
Moon 8:51 PM EDT (11/3) 11:31 AM EDT (11/3)
Length of Visible Light 10h 59m
Length of Day
9h 55m
Waning Gibbous, 80% of the Moon is Illuminated
Nov 3
Waning Gibbous
Nov 6
Last Quarter
Nov 13
New
Nov 20
First Quarter
Nov 28
Full

Hourly Weather History & Observations

Time (EDT) Temp. Windchill Dew Point Humidity Pressure Visibility Wind Dir Wind Speed Gust Speed Precip Events Conditions
12:26 AM 38.5 °F 36.1 °F 34.5 °F 86% 29.56 in - Variable 3.5 mph - 0.00 in   Unknown
1:25 AM 38.5 °F - 34.7 °F 86% 29.57 in - Variable 2.3 mph - N/A   Unknown
2:25 AM 38.5 °F 36.1 °F 35.2 °F 88% 29.57 in - Variable 3.5 mph - N/A   Unknown
3:25 AM 38.1 °F - - N/A% 29.56 in - Calm Calm - N/A   Unknown
4:25 AM 38.5 °F 36.1 °F - N/A% 29.57 in - Variable 3.5 mph - N/A   Unknown
5:25 AM 38.5 °F 36.1 °F - N/A% 29.57 in - Variable 3.5 mph - N/A   Unknown
6:25 AM 39.0 °F - - N/A% 29.58 in - Variable 2.3 mph - N/A   Unknown
7:25 AM 39.2 °F 35.9 °F - N/A% 29.59 in - Variable 4.6 mph - N/A   Unknown
8:25 AM 39.9 °F - - N/A% 29.61 in - Variable 2.3 mph - N/A   Unknown
9:25 AM 41.0 °F - 40.1 °F 97% 29.61 in - Variable 2.3 mph - N/A   Unknown
10:25 AM 43.0 °F 38.8 °F 38.1 °F 83% 29.62 in - Variable 6.9 mph 13.8 mph N/A   Unknown
11:25 AM 43.3 °F - 38.1 °F 82% 29.62 in - Variable 2.3 mph 12.7 mph N/A   Unknown
12:26 PM 43.9 °F 42.3 °F 37.9 °F 80% 29.61 in - Variable 3.5 mph - N/A   Unknown
1:28 PM 42.8 °F 41.1 °F 38.5 °F 85% 29.61 in - Variable 3.5 mph - N/A   Unknown
2:25 PM 42.8 °F 39.3 °F 37.8 °F 82% 29.60 in - Variable 5.8 mph - N/A   Unknown
3:25 PM 41.5 °F - 37.6 °F 86% 29.62 in - Variable 2.3 mph - N/A   Unknown
4:26 PM 41.0 °F 38.0 °F 36.9 °F 85% 29.62 in - Variable 4.6 mph 13.8 mph N/A   Unknown
5:25 PM 40.3 °F 36.3 °F 36.5 °F 86% 29.63 in - Variable 5.8 mph 13.8 mph N/A   Unknown
6:25 PM 39.6 °F 35.4 °F 36.3 °F 88% 29.64 in - Variable 5.8 mph - N/A   Unknown
7:25 PM 39.6 °F 36.3 °F 36.5 °F 89% 29.65 in - Variable 4.6 mph - N/A   Unknown
8:25 PM 39.6 °F 37.4 °F - N/A% 29.65 in - Variable 3.5 mph - N/A   Unknown
9:25 PM 39.7 °F 37.6 °F - N/A% 29.67 in - Variable 3.5 mph - N/A   Unknown
10:26 PM 39.9 °F 37.8 °F - N/A% 29.67 in - Variable 3.5 mph - N/A   Unknown
11:25 PM 39.9 °F 37.8 °F - N/A% 29.68 in - Variable 3.5 mph - N/A   Unknown